sat.trackr.live / text

‹ back to catalog

SDA_1674

NORAD 65984 · 2025-230L

PAYLOAD ACTIVE UNKNOWN

§ Identity

Operator
Country
US
Launch date
2025-10-15
Launch site
AFWTR
Launch vehicle
Mass (kg)
RCS (m²)

External: N2YO · Heavens-Above · Gunter

§ Orbital elements

Epoch: 2026-05-25T05:00:30.517056Z

Period
104.06 min
Inclination
81.3012°
Eccentricity
0.0000467
Mean motion
13.83839493 rev/d
Perigee alt
950.0 km
Apogee alt
950.6 km
Semi-major
7,328.4 km
B*
-6.8213e-3
RAAN
232.9624°
Arg perigee
229.5005°
Mean anomaly
130.6111°
Rev number
3,063

§ Raw data

SDA_16741 65984U 25230L   26145.20868654 -.00007535  00000+0 -68213-2 0  99942 65984  81.3012 232.9624 0000467 229.5005 130.6111 13.83839493 30633

JSON: /api/v1/satellites/65984 · /tle

For live sub-satellite position, see the globe view (requires WebGL).

§ Visibility from observer

Set your observer location to see the next 7 days of passes ≥ 10°. The values pass through the URL so the page stays shareable.

No JS? Fill the form by hand. The geolocation button needs JavaScript.